Other Public Products
Issued by NWS Grand Forks, ND

Home | Current Version | Previous Version | Graphics & Text | Print | Product List | Glossary On
Versions: 1 2 3 4 5 6 7 8 9 10 11 12 13 14 15 16 17 18 19 20 21 22 23 24 25 26 27 28 29 30 31 32 33 34 35 36 37 38 39 40 41 42 43 44 45 46 47 48 49 50
000
FPUS83 KFGF 201610
OPUFGF
PRAIRIE TO PINES WEATHER ROUNDUP
NATIONAL WEATHER SERVICE EASTERN NORTH DAKOTA/GRAND FORKS ND
1100 AM CDT MON APR 20 2015

 **SATELLITE DATA USED TO AUGMENT SKY COVER AT AUTOMATED STATIONS**
 *****  WEATHER ACROSS EASTERN NORTH DAKOTA  *****

CITY           SKY/WX    TMP DP  RH WIND       PRES   REMARKS
GRAND FORKS    LGT SNOW  36  28  73 NW23G39   29.61F
GRAND FORKS AF LGT SNOW  36  32  87 N18G26    29.61F
GRAND CITY NWS   N/A     34 N/A N/A N18         N/A  WCI  23
BUXTON         NOT AVBL
DEVILS LAKE    CLOUDY    37  25  60 NW33G40   29.65F
FARGO          CLOUDY    37  27  67 NW22G32   29.63F
WAHPETON ARPT  CLOUDY    36  28  75 NW23      29.64S
$$

 *****  WEATHER ACROSS CENTRAL AND WESTERN NORTH DAKOTA  *****

CITY           SKY/WX    TMP DP  RH WIND       PRES   REMARKS
JAMESTOWN      CLOUDY    37  26  64 NW23G32   29.68S
BISMARCK       SUNNY     43  11  27 NW18G35   29.81S
MINOT          SUNNY     40  23  50 NW28G37   29.79F
MINOT AFB      SUNNY     39  24  53 NW28G40   29.79S
GARRISON         N/A     42  14  32 NW35G40   29.80F
WILLISTON      SUNNY     46  13  26 N15       29.92F
DICKINSON      SUNNY     44  11  26 NW22G31   29.87S
HETTINGER      SUNNY     45  15  30 NW21G31   29.89F
$$

 *****  OTHER OBSERVATIONS NORTHEAST NORTH DAKOTA  *****

CITY           SKY/WX    TMP DP  RH WIND       PRES   REMARKS
WALHALLA       FLURRIES  32  32 100 NW24G38   29.62S WCI  19
LANGDON        CLOUDY    32  28  86 NW24G31   29.62S WCI  19
CAVALIER       LGT SNOW  32  28  86 NW21G33   29.61S WCI  20
GRAFTON        FLURRIES  34  28  80 NW30G45   29.61F WCI  20
CANDO          CLOUDY    37  27  65 NW26G44   29.69S
FORT TOTTEN    NOT AVBL
ROLLA          CLOUDY    32  28  86 NW35      29.69S WCI  17
RUGBY            N/A     36  27  69 NW29G36   29.73R
 ***** THE ABOVE OBSERVATIONS ARE NON NWS ARE NOT QUALITY
        CONTROLLED AND MAY MIS-REPORT RAIN FOR SNOW...
$$

 *****  OTHER OBSERVATIONS SOUTHEAST NORTH DAKOTA *****

CITY           SKY/WX    TMP DP  RH WIND       PRES   REMARKS
COOPERSTOWN    NOT AVBL
VALLEY CITY    FLURRIES  36  32  87 NW25G32   29.66S
OAKES            N/A     37  28  70 NW23G32   29.68S
GWINNER        PTSUNNY   37  32  81 NW24      29.68F
SHEYENNE NWR     N/A     37  28  71 N13       29.95S
BUFFALO        NOT AVBL
WYNDMERE         N/A     37  30  75 NW18        N/A
 ***** THE ABOVE OBSERVATIONS ARE NON NWS ARE NOT QUALITY
       CONTROLLED AND MAY MIS-REPORT RAIN FOR SNOW...
$$

  *****  WEATHER ACROSS NORTHERN MINNESOTA  *****

CITY           SKY/WX    TMP DP  RH WIND       PRES   REMARKS
FLAG ISLAND    CLOUDY    28  27  93 W23       29.43F FOG     WCI  14
WARROAD        CLOUDY    30  27  86 W17G23    29.48S WCI  18
ROSEAU         CLOUDY    30  27  86 NW16      29.49S WCI  19
HALLOCK        LGT SNOW  32  27  80 NW29G37   29.56F WCI  18
THF RVR FALLS  CLOUDY    30  27  86 NW26G32   29.55F WCI  16
HALSTAD        NOT AVBL
FOSSTON        CLOUDY    28  25  86 NW18G28   29.56S WCI  16
BAUDETTE       CLOUDY    30  24  78 NW21G26   29.45S WCI  17
WASKISH        CLOUDY    30  27  86 W15G23    29.47F WCI  19
CROOKSTON      CLOUDY    36  28  75 N24G35    29.60S
$$
  *****  WEATHER ACROSS CENTRAL AND WEST MINNESOTA  *****

CITY           SKY/WX    TMP DP  RH WIND       PRES   REMARKS
BEMIDJI        CLOUDY    31  24  76 NW22G28   29.50F WCI  18
PARK RAPIDS    CLOUDY    37  26  64 NW23      29.52S
WADENA         CLOUDY    32  27  80 NW18      29.55S WCI  20
DETROIT LAKES  CLOUDY    32  28  86 NW18G28   29.59S WCI  20
MOORHEAD       LGT RAIN  36  28  75 NW18      29.63F
FERGUS FALLS   CLOUDY    34  27  75 NW21      29.63S WCI  22
ELBOW LAKE     CLOUDY    35  29  78 NW22G30   29.61S WCI  23
MORRIS MN      CLOUDY    37  30  75 NW22G30   29.61S
STAPLES        CLOUDY    34  27  75 NW21      29.53F WCI  22
WHEATON        PTSUNNY   37  27  65 NW22G33   29.66S
$$
  *****  WEATHER ELSEWHERE ACROSS MINNESOTA  *****

CITY           SKY/WX    TMP DP  RH WIND       PRES   REMARKS
DULUTH         CLOUDY    35  27  72 NW21G28   29.37S WCI  24
INTRNTL FALLS  CLOUDY    30  26  85 W15G22    29.41F WCI  19
ELY            LGT SNOW  30  28  93 NW10G16   29.35F WCI  21
CLOQUET        CLOUDY    34  28  80 W16       29.40S WCI  23
BRAINERD       CLOUDY    34  27  75 W15G22    29.50F WCI  24
HIBBING        CLOUDY    33  26  75 NW16G28   29.40F WCI  23
ALEXANDRIA     CLOUDY    36  27  69 NW22G32   29.58R
SAINT CLOUD    CLOUDY    37  26  64 NW25G33   29.53S
MINNEAPOLIS    CLOUDY    38  28  67 NW15G24   29.52R
$$

  *****  WEATHER ACROSS SOUTH DAKOTA  *****

CITY           SKY/WX    TMP DP  RH WIND       PRES   REMARKS
SIOUX FALLS    MOSUNNY   45  22  40 NW26G39   29.71S
BROOKINGS      PTSUNNY   41  28  60 NW24G33   29.69R
WATERTOWN      CLOUDY    39  28  64 NW21G32   29.67S
HURON          SUNNY     45  20  36 NW28G38   29.75F
SISSETON         N/A     35  32  88 N28G35    29.66S WCI  22
ABERDEEN       CLOUDY    41  25  53 NW23G35   29.75F
MITCHELL       SUNNY     50  15  24 NW30G37   29.78F
PIERRE         SUNNY     47  21  35 NW26G38   29.84F
MOBRIDGE       SUNNY     45   8  22 NW28G37   29.79F
RAPID CITY     MOSUNNY   46  21  37 NW26      29.92S
$$

  *****  SOME WEATHER IN NEARBY STATES *****

CITY           SKY/WX    TMP DP  RH WIND       PRES   REMARKS
GLASGOW MT     SUNNY     46  25  43 NW13      29.96F
GREAT FALLS MT SUNNY     49  28  44 S7        29.95F
CHEYENNE WY    SUNNY     40  24  53 NW14      29.99F
SCOTTSBLUFF NE SUNNY     46  29  51 W10       29.99F
OMAHA NE       PTSUNNY   48  32  53 NW22G33   29.80S
DES MOINES IA  CLOUDY    45  33  63 NW29G37   29.69R
DAVENPORT IA   PTSUNNY   46  35  65 NW22G36   29.53R
CHICAGO IL     CLOUDY    46  40  79 W22G33    29.35R
EAU CLAIRE WI  CLOUDY    39  31  72 NW21G28   29.41R
LA CROSSE WI   CLOUDY    43  34  70 NW21G26   29.44R
$$

  *****  SOME NATIONAL WEATHER *****

CITY           SKY/WX    TMP DP  RH WIND       PRES   REMARKS
LA GUARDIA NY  LGT RAIN  57  54  89 SE26G38   29.72F FOG
RALEIGH NC     PTSUNNY   74  63  68 W15G25    29.76R
ATLANTA GA     PTSUNNY   72  60  66 S15G22    29.79R
NEW ORLEANS LA PTSUNNY   75  58  55 N14G21    29.90R
OKLAHOMA CITY  MOSUNNY   58  34  40 N10       30.05R
ALBUQUERQUE NM SUNNY     55  28  35 CALM      30.03S
SALT LAKE CITY MOSUNNY   57  33  40 CALM      29.96S
LOS ANGELES CA CLOUDY    58  51  78 VRB5      29.92S
BOISE ID       SUNNY     58  31  35 SE7       29.96S
SEATTLE WA     MOSUNNY   55  45  68 CALM      29.96F
$$

*** WEATHER ACROSS MANITOBA...SASKATCHEWAN AND ONTARIO ***
                ***ONTARIO***

CITY           SKY/WX    TMP DP  RH WIND       PRES   REMARKS
GERALDTON      LGT RAIN  36  34  93 N9        29.21F FOG
THUNDER BAY    LGT RAIN  37  37 100 W10       29.24F
SIOUX LOOKOUT  LGT SNOW  32  30  93 NW12      29.32F FOG     WCI  23
TORONTO        CLOUDY    50  48  93 E8        29.42F
BIG TROUT LK   LGT SNOW  30  28  93 NE12G18   29.56F VSB 3/4 WCI  21
PICKLE LAKE    LGT SNOW  32  30  93 E7        29.33F
DRYDEN         LGT SNOW  30  30 100 W12       29.34F WCI  21
KENORA         LGT SNOW  28  27  93 W10       29.39F WCI  19
$$
                *** MANITOBA***

CITY           SKY/WX    TMP DP  RH WIND       PRES   REMARKS
BRANDON        PTSUNNY   37  27  65 N25G33    29.74R
DAUPHIN        CLOUDY    36  27  69 N22G29    29.77F
ISLAND LAKE    LGT SNOW  30  28  93 NE13G20   29.64S WCI  20
PILOT MOUND      N/A     32  28  86 NW17G23     N/A  WCI  21
THE PAS        MOSUNNY   34  25  69 N10       29.91S
THOMPSON       FLURRIES  27  23  86 NE15G22   29.92S WCI  15
WINNIPEG       CLOUDY    30  27  86 NW30G38   29.58S WCI  15
LYNN LAKE      SUNNY     34  12  40 N6        29.99F
CHURCHILL      PTSUNNY   21  19  93 NE8       30.11F WCI  12
GILLAM         CLOUDY    28  23  80 NE18      29.91S WCI  16
$$
                ***SASKATCHEWAN***

CITY           SKY/WX    TMP DP  RH WIND       PRES   REMARKS
ESTEVAN        MOSUNNY   39  14  35 NW20      29.89F
KINDERSLEY     MOSUNNY   52  19  28 W9        29.92F
LLOYDMINSTER   MOSUNNY   52  19  28 W14       29.86F
PRINCE ALBERT  PTSUNNY   39  23  52 E6        29.95F
REGINA         MOSUNNY   39  18  41 N13       29.95S


USA.gov is the U.S. government's official web portal to all federal, state and local government web resources and services.